Location: Unspecified
(0.0000°N, 0.0000°E)
Time: 17:48:29
(UTC+00:00)

N. Korean satellite - Visible Passes

Search period start: 26 May 2022 00:00
Search period end: 05 June 2022 00:00
Orbit: 438 x 477 km, 97.3° (Epoch: 25 May)

Date Brightness Start Highest point End Pass type
(mag) Time Alt. Az. Time Alt. Az. Time Alt. Az.
26 May 6.9 05:08:05 10° N 05:11:16 40° W 05:14:26 10° SSW visible
27 May 7.4 04:35:30 10° NNE 04:38:43 44° E 04:41:56 10° S visible
28 May 9.5 04:04:43 10° ENE 04:06:08 12° E 04:07:33 10° SE visible
29 May 6.6 05:02:55 10° N 05:06:11 50° W 05:09:25 10° SSW visible
30 May 7.9 04:30:26 10° NNE 04:33:31 35° E 04:36:36 10° SSE visible
31 May 8.1 05:31:18 10° NW 05:33:29 16° W 05:35:40 10° WSW visible
01 Jun 6.3 04:57:28 10° N 05:00:46 65° W 05:04:04 10° SSW visible
02 Jun 8.3 04:25:06 10° NE 04:28:00 28° E 04:30:54 10° SSE visible
03 Jun 7.8 05:25:19 10° NNW 05:27:52 20° W 05:30:23 10° SW visible
04 Jun 6.2 04:51:43 10° N 04:55:02 85° W 04:58:12 11° SSW visible
